Flag for U.S.A. Weather past 2 weeks in Key West, Florida, U.S.A.

Now
84 °F

Clear.


Feels Like: 93 °F
Forecast: 82 / 88 °F
Wind: 5 mph from Northeast

Location: Key West International Airport

Current Time: Sep 21, 2014 at 11:13:46 PM

Latest Report: Sep 21, 2014 at 10:53 PM


Visibility: 10 mi

Pressure: 30.03 "Hg

Humidity: 77%

Dew point: 76 °F

Location of Key WestLocation

Historic Weather in Key West — Graph

°F

Key West temperature yesterday

Maximum temperature yesterday: 88 °F (at 4:53 PM)
Minimum temperature yesterday: 80 °F (at 3:53 AM)
Average temperature yesterday: 83 °F

Past Weeks' High & Low Weather Summary

 TemperatureHumidityPressure
High90 °F (Sep 17, 4:53 PM)91% (Sep 17, 7:53 AM)30.14 "Hg (Sep 17, 7:53 AM)
Low76 °F (Sep 9, 4:53 AM)59% (Sep 17, 4:53 PM)29.89 "Hg (Sep 20, 3:53 PM)
Average83 °F74%29.99 "Hg
* Reported Sep 6 9:53 PM — Sep 21 9:53 PM, Key West, Weather by CustomWeather, © 2014

Note: Actual official high and low records may vary slightly from our data, if they occured in-between our weather recording intervals... More about our weather records

Advertising

Key West weather history for previous 24 hours

 ConditionsComfort  
Time TempWeatherWind HumidityBarometerVisibility
9:53 PM
Sep 21
84 °FClear.3 mph74%30.04 "Hg10 mi
8:53 PM84 °FClear.5 mph74%30.01 "Hg10 mi
7:53 PM84 °FSunny.5 mph72%29.98 "Hg10 mi
6:53 PM85 °FSunny.No wind70%29.97 "Hg10 mi
5:53 PM86 °FSunny.6 mph70%29.97 "Hg10 mi
4:53 PM86 °FSunny.6 mph70%29.96 "Hg10 mi
3:53 PM86 °FSunny.6 mph67%29.97 "Hg10 mi
2:53 PM85 °FSunny.5 mph70%29.99 "Hg10 mi
1:53 PM85 °FSunny.5 mph70%29.99 "Hg10 mi
12:53 PM85 °FSunny.5 mph68%30.01 "Hg10 mi
11:53 AM85 °FSunny.3 mph68%30.01 "Hg10 mi
10:53 AM85 °FSunny.No wind68%30.01 "Hg10 mi
9:53 AM84 °FSunny.5 mph72%30.01 "Hg10 mi
8:53 AM82 °FPassing clouds.No wind82%30.00 "Hg10 mi
7:53 AM82 °FLight rain. Passing clouds.3 mph77%29.98 "Hg10 mi
6:53 AM82 °FClear.5 mph79%29.97 "Hg10 mi
5:53 AM82 °FPassing clouds.6 mph79%29.93 "Hg10 mi
5:01 AM82 °FPassing clouds.6 mph79%29.93 "Hg10 mi
3:53 AM81 °FClear.3 mph79%29.94 "Hg10 mi
2:53 AM81 °FPassing clouds.6 mph77%29.95 "Hg10 mi
1:53 AM81 °FPassing clouds.6 mph77%29.98 "Hg10 mi
12:53 AM81 °FPassing clouds.8 mph77%30.00 "Hg10 mi
11:53 PM
Sep 20
81 °FClear.5 mph79%29.98 "Hg10 mi
Weather by CustomWeather, © 2014

See weather overviewHow to use our weather pages